Location: ??
(35.1714°N, 128.2806°E)
Time: 12:52:20
(UTC+00:00)

Tianhe-1 - Visible Passes

Search period start: 18 June 2021 00:00
Search period end: 28 June 2021 00:00
Orbit: 374 x 386 km, 41.5° (Epoch: 18 June)

Date Brightness Start Highest point End Pass type
(mag) Time Alt. Az. Time Alt. Az. Time Alt. Az.
18 Jun 1.9 18:35:09 34° SSE 18:35:35 36° SSE 18:38:30 10° E visible
19 Jun 4.1 17:36:53 11° E 17:36:53 11° E 17:37:03 10° E visible
19 Jun 1.3 19:08:59 17° WSW 19:11:15 66° NNW 19:14:24 10° ENE visible
20 Jun 1.4 18:10:40 58° ESE 18:10:40 58° ESE 18:13:23 10° ENE visible
21 Jun 2.0 18:44:23 22° WNW 18:46:01 42° NNW 18:49:03 10° NE visible
22 Jun 2.5 17:45:58 37° NE 17:45:58 37° NE 17:48:03 10° ENE visible
22 Jun 3.0 19:19:16 10° WNW 19:21:58 26° N 19:24:42 10° NE visible
23 Jun 2.6 18:19:38 24° NW 18:20:45 31° NNW 18:23:36 10° NE visible
24 Jun 3.6 17:21:12 22° NE 17:21:12 22° NE 17:22:34 10° ENE visible
24 Jun 3.2 18:54:04 10° WNW 18:56:43 24° N 18:59:23 10° ENE visible
25 Jun 3.0 17:54:52 25° NNW 17:55:25 26° N 17:58:08 10° NE visible
25 Jun 3.0 19:29:51 10° NW 19:32:40 29° N 19:35:30 10° ENE visible
26 Jun 4.3 16:56:28 13° NE 16:56:28 13° NE 16:56:59 10° NE visible
26 Jun 3.2 18:28:42 10° NW 18:31:22 25° N 18:34:03 10° ENE visible
27 Jun 3.4 17:30:17 24° N 17:30:17 24° N 17:32:40 10° NE visible
27 Jun 2.5 19:04:16 10° NW 19:07:13 38° NNE 19:10:12 10° E visible
